FENGYUN 1C DEB, 31031

Orbit data source: Space-Track

FENGYUN 1C DEB, 31031 is space debris in SSO originally from a launch on Mon, 10 May 1999 UTC launched from the Taiyaun Space Center, China (TSC). Fengyun 1C debris stems from the Chinese weather satellite Fengyun-1C, which was intentionally destroyed by a Chinese anti-satellite missile in 2007. This event dramatically increased the amount of space debris, with thousands of trackable fragments posing hazards to satellites and human spaceflight. The Fengyun 1C debris cloud has become a focal point in discussions about space sustainability and the need for international regulations to prevent the creation of new debris.

Loading next visibility...
Identifier
31031, 1999-025BDZ
Orbit
SSO
Country
Flag of CNCN / PRC
Related business
Manufacturer
Unknown
Mission
Spacecraft
Bus & Motor
Unknown
Mass
Unknown
Launch date (UTC)
1999-05-10 (27 years ago)
Launch vehicle
Unknown
Launch site
Taiyaun Space Center, China (TSC)
Object type
Payload
Rocket body
Debris
Shape & HBR
Unknown shape, 0.1 m
Radar Cross Section
Small (<0.1 m²)

Expand to show TLE details & history
Last TLE update: 18 hours ago

TLE from 18 hours ago
0 FENGYUN 1C DEB
1 31031U 99025BDZ 26121.74123016  .00000756  00000-0  36689-3 0  9992
2 31031  99.0761  47.6156 0028447 145.8536 244.5436 14.21263506988438
Epoch: 2026-05-01T17:47Z
TLE epoch observation values (Epoch: 2026-05-01T17:47:22.285Z)
Latitude
29.7391°
Longitude
-84.10485°
Altitude
833.632 km
Speed
7.434 km/s
True Right ascension
02h 49m 37s
True Declination
29° 35' 34"
Sunlit
Object was in daylight at epoch
Visualization orbit readout
Latitude
Unknown
Longitude
Unknown
Altitude
Unknown
Speed
Unknown
Apparent Right ascension
Unknown
Apparent Declination
Unknown
Sunlit
N/A
Visualization observer readout
Local Sidereal Time
19:12:54
Azimuth
Unknown
Elevation
Unknown
Doppler factor
Unknown
Orbital elements
Apogee altitude
838.729 km
Perigee altitude
797.786 km
Semi-major axis
7,196.395 km
Eccentricity
0.00284
Inclination
99.0761°
RAAN
47.6156°
Arg. of periapsis
145.8536°
True anomaly
244.24972°
Mean anomaly
244.5436°
Eccentric anomaly
244.39662°
Mean motion
3.55525 °/min
Orbital period
101.26 mins
BSTAR
0.00036689
Loading maneuver chart data...
Computing Atmospheric mass density...
Loading historical data...
Loading historical data...
Loading historical data...
Loading historical data...
Loading historical data...
Loading historical data...
Loading historical data...

Documentation

Showing up to 5 results
|